Regional Weather Roundup
Issued by NWS Newport/Morehead, NC

Current Version | Previous Version | Graphics & Text | Print | Product List | Glossary On
Versions: 1 2 3 4 5 6 7 8 9 10 11 12 13 14 15 16 17 18 19 20 21 22 23 24 25 26 27 28 29 30 31 32 33 34 35 36 37 38 39 40 41 42 43 44 45 46 47 48 49 50
000 ASUS42 KMHX 171626 RWRMHX WEATHER ROUNDUP FOR EASTERN NORTH CAROLINA NATIONAL WEATHER SERVICE NEWPORT/MOREHEAD CITY NC 1100 AM EST FRI NOV 17 2017 NOTE: "FAIR" INDICATES FEW OR NO CLOUDS BELOW 12,000 FEET WITH NO SIGNIFICANT WEATHER AND/OR OBSTRUCTIONS TO VISIBILITY NCZ015>017-031-032-045>047-102-103-171700- NORTH COAST CITY SKY/WX TMP DP RH WIND PRES REMARKS EDENTON SUNNY 52 35 51 N14 30.22S ELIZABETH CITY SUNNY 51 36 56 NW10 30.21F KITTY HAWK SUNNY 49 36 58 NW6 30.18F MANTEO SUNNY 50 36 59 N13 30.20F $$ NCZ045>047-081-094-103-104-171700- CENTRAL COAST CITY SKY/WX TMP DP RH WIND PRES REMARKS FRISCO SUNNY 54 43 66 N9G16 30.18F $$ NCZ095-097-098-100-101-171700- SOUTHERN COAST CITY SKY/WX TMP DP RH WIND PRES REMARKS BEAUFORT SUNNY 53 37 54 NE14 30.20F CEDAR ISLAND NOT AVBL JACKSONVILLE SUNNY 52 35 52 N10 30.22F PINEY ISLAND NOT AVBL WILMINGTON SUNNY 54 34 46 N8 30.22F $$ NCZ011>013-027>030-043-044-078>080-089-090>093-098-171700- COASTAL PLAIN CITY SKY/WX TMP DP RH WIND PRES REMARKS AHOSKIE SUNNY 48 30 49 N7 30.23F CLINTON SUNNY 51 34 52 NE7 30.24F ELIZABETHTOWN NOT AVBL GOLDSBORO SUNNY 51 31 47 N6 30.22F GREENVILLE SUNNY 52 32 46 N7 30.24S HAVELOCK SUNNY 52 36 54 NE10 30.22 KENANSVILLE SUNNY 52 32 46 N9 30.23F KINSTON SUNNY 52 32 46 N8 30.24F NEW BERN SUNNY 49 34 56 NE6 30.23F RICHLANDS SUNNY 51 34 52 N9 30.23F ROCKY MOUNT SUNNY 51 33 50 N6 30.24F WASHINGTON SUNNY 52 32 47 N7 30.22F WHITEVILLE SUNNY 52 33 49 NE8 30.22F $$ AMZ130-135-150-152-154-156-158-170-250-252-270-ANZ085-086-088-633-658-670-171700- MARINE OBSERVATIONS STATION/POSITION TIME TEMP WIND PRES WAVE SWELL AIR SEA DIR/SP/G HT/PER HT/PER (UTC) (F) (DEG/KT/KT) (MB) (FT/S) (FT/S) CHESAPEAKE LIGHT NOT AVBL 64 E VA BEACH 1550 50 61 330/ 17/ 21 1021.5 7/ 7 3/13 DUCK 1600 48 57 330/ 11/ 17 1021.9 2 E DUCK 1600 59 N/A 5/ 7 2/13 OREGON INLET 1600 50 58 310/ 10/ 14 1022.0 13E OREGON INLT 1548 62 N/A 7/ 8 7/ 8 HATTERAS CG 1600 50 58 360/ 16/ 19 1021.7 DIAMOND BUOY 1610 54 64 360/ 16/ 21 1021.5 CAPE LOOKOUT 1600 50 10/ 14/ 19 1022.8 BEAUFORT LAB 1600 50 59 10/ 12/ 16 1022.6 30 SE NEW RVR IN 1608 53 70 60/ 14/ 17 1022.6 30 SE NEW RVR IN 1600 70 N/A 5/ 5 2/11 27 SE WRIGHTSVLE 1608 54 68 50/ 17/ 25 1022.5 5 SE WRIGHTSVLE 1608 51 64 30/ 12/ 19 1022.7 225 S CAPE HAT 1550 70 77 30/ 16/ 19 1018.3 7/ 7 5/ 7 41 SE CHARLESTON 1610 64 75 50/ 17/ 21 1021.0 $$

USA.gov is the U.S. government's official web portal to all federal, state and local government web resources and services.